Location: Dehesa de la Cepeda
(40.6574°N, 4.3013°W)
Time: 02:56:59
(UTC+00:00)

Courier 1B - Pass Details

Date: 08 August 2021
Orbit: 963 x 1209 km, 28.3° (Epoch: 17 September)

Event Time Altitude Azimuth Distance (km) Brightness Sun altitude
Rises 21:49:19 0° 258° (WSW) 4,108 11.1 -23.2°
Reaches altitude 10° 21:54:05 10° 233° (SW) 3,132 10.2 -23.8°
Maximum altitude 21:57:23 13° 207° (SSW) 2,877 9.7 -24.2°
Enters shadow 21:57:48 13° 204° (SSW) 2,878 9.7 -24.2°
Drops below altitude 10° 22:00:40 10° 182° (S) 3,090 - -24.6°
Sets 22:05:19 0° 157° (SSE) 4,006 - -25.1°
